FW2972 Weather Reports


time (UTC)temp
C
wind
direction
speed
KPH
gust
KPH
rain 1hr
cm
rain 24hr
cm
rain mn
cm
humidity
%
barometer
mb
20260510071813 23 158 0.0 9.7 0.00 0.00 0.00 99 1015.2
20260510071309 23 242 0.0 3.2 0.00 0.00 0.00 99 1015.2
20260510070808 23 210 1.6 8.0 0.00 0.00 0.00 99 1015.2
20260510070305 23 191 1.6 8.0 0.00 0.00 0.00 99 1015.3
20260510065804 23 123 4.8 4.8 0.00 0.00 0.00 99 1015.3
20260510065305 23 128 0.0 3.2 0.00 0.00 0.00 98 1015.5
20260510064758 23 247 4.8 8.0 0.00 0.00 0.00 98 1015.2
20260510064256 23 250 0.0 4.8 0.00 0.00 0.00 98 1015.3
20260510063751 23 210 3.2 12.9 0.00 0.00 0.00 97 1015.2
20260510063248 23 257 3.2 9.7 0.00 0.00 0.00 97 1015.2
20260510062745 23 148 4.8 12.9 0.00 0.00 0.00 97 1015.4
20260510062241 23 209 3.2 9.7 0.00 0.00 0.00 98 1015.4
20260510061736 23 176 1.6 6.4 0.00 0.00 0.00 99 1015.4
20260510061234 23 152 4.8 8.0 0.00 0.00 0.00 99 1015.6
20260510060729 23 168 3.2 6.4 0.00 0.00 0.00 99 1015.6
20260510060227 23 158 3.2 6.4 0.00 0.00 0.00 99 1015.7
20260510055723 23 162 1.6 9.7 0.00 0.00 0.00 99 1015.6
20260510055221 23 157 0.0 8.0 0.00 0.00 0.00 99 1015.8
20260510054716 23 142 4.8 11.3 0.00 0.00 0.00 99 1015.6
20260510054212 23 163 4.8 8.0 0.00 0.00 0.00 99 1015.7
20260510053712 23 196 3.2 8.0 0.00 0.00 0.00 99 1015.3
20260510053208 24 146 3.2 9.7 0.00 0.00 0.00 98 1015.8
20260510052704 24 187 3.2 11.3 0.00 0.00 0.00 98 1015.6
20260510052200 24 183 1.6 17.7 0.00 0.00 0.00 98 1015.7
20260510051656 24 182 4.8 17.7 0.00 0.00 0.00 98 1015.8
20260510051153 24 138 11.3 17.7 0.00 0.00 0.00 98 1015.8
20260510050650 24 134 3.2 17.7 0.00 0.00 0.00 99 1015.8
20260510050147 24 195 4.8 16.1 0.00 0.00 0.00 99 1016.1
20260510045644 24 183 3.2 11.3 0.00 0.05 0.05 99 1016.2
20260510045141 24 165 4.8 9.7 0.00 0.05 0.05 99 1016.0
20260510044636 24 155 3.2 11.3 0.00 0.05 0.05 99 1016.1
20260510044134 24 153 1.6 17.7 0.00 0.05 0.05 99 1016.2
20260510043630 24 166 3.2 14.5 0.00 0.05 0.05 99 1016.3
20260510043126 24 126 3.2 9.7 0.00 0.05 0.05 99 1016.4
20260510042624 24 200 4.8 17.7 0.00 0.05 0.05 99 1016.5
20260510042120 24 85 8.0 16.1 0.00 0.05 0.05 99 1016.5
20260510041617 24 132 8.0 16.1 0.00 0.05 0.05 99 1016.5
20260510041114 24 144 3.2 9.7 0.05 0.05 0.05 99 1016.7
20260510040612 24 125 1.6 19.3 0.05 0.05 0.05 99 1016.7
20260510040108 24 141 1.6 11.3 0.00 0.03 0.03 99 1016.6
20260510035604 24 134 6.4 11.3 0.00 0.03 0.03 99 1016.5
20260510035058 24 152 4.8 8.0 0.00 0.03 0.03 99 1016.7
20260510034556 24 124 3.2 14.5 0.05 0.03 0.03 99 1016.4
20260510034053 24 109 3.2 4.8 0.13 0.03 0.03 99 1016.1
20260510033549 25 80 0.0 8.0 0.13 0.03 0.03 99 1016.0
20260510033047 25 162 4.8 14.5 0.05 0.00 0.00 99 1016.0
20260510032543 25 119 8.0 17.7 0.00 0.00 0.00 98 1015.8
20260510032038 25 165 3.2 11.3 0.00 0.00 0.00 98 1016.2
20260510031533 25 200 0.0 8.0 0.00 0.00 0.00 97 1016.4
20260510031030 25 132 6.4 9.7 0.00 0.00 0.00 97 1016.6
20260510030526 25 146 3.2 12.9 0.00 0.00 0.00 97 1016.4
20260510030023 25 57 1.6 12.9 0.00 0.00 0.00 97 1016.4
20260510025520 25 226 4.8 17.7 0.00 0.00 0.00 96 1016.4
20260510025018 25 105 4.8 11.3 0.00 0.00 0.00 97 1016.1
20260510024514 25 172 3.2 20.9 0.00 0.00 0.00 97 1016.0
20260510024010 25 184 4.8 20.9 0.00 0.00 0.00 96 1015.8
20260510023506 25 129 4.8 17.7 0.00 0.00 0.00 96 1015.7
20260510023004 25 155 11.3 16.1 0.00 0.00 0.00 96 1015.6
20260510022503 25 156 4.8 16.1 0.00 0.00 0.00 96 1015.5
20260510022003 25 103 9.7 11.3 0.00 0.00 0.00 95 1015.6
20260510021459 25 167 3.2 11.3 0.00 0.00 0.00 95 1015.5
20260510020956 25 157 3.2 14.5 0.00 0.00 0.00 94 1015.4
20260510020451 26 137 6.4 12.9 0.00 0.00 0.00 94 1015.3
20260510015946 26 101 8.0 16.1 0.00 0.00 0.00 93 1015.1
20260510015443 26 201 4.8 8.0 0.00 0.00 0.00 90 1014.5
20260510014938 26 166 4.8 11.3 0.00 0.00 0.00 87 1014.4
20260510014436 26 137 4.8 12.9 0.00 0.00 0.00 83 1014.3
20260510013932 26 138 3.2 11.3 0.00 0.00 0.00 82 1014.2
20260510013427 26 149 4.8 9.7 0.00 0.00 0.00 82 1014.1
20260510012923 27 131 4.8 8.0 0.00 0.00 0.00 82 1014.3
20260510012418 27 204 0.0 12.9 0.00 0.00 0.00 81 1014.0
20260510011913 27 165 4.8 8.0 0.00 0.00 0.00 78 1013.9
20260510011408 27 149 0.0 12.9 0.00 0.00 0.00 77 1013.4
20260510010904 27 266 4.8 9.7 0.00 0.00 0.00 77 1013.3
20260510010402 27 190 0.0 8.0 0.00 0.00 0.00 76 1013.4
20260510005858 27 142 11.3 12.9 0.00 0.00 0.00 75 1013.1
20260510005354 28 186 4.8 27.4 0.00 0.00 0.00 73 1013.1
20260510004852 28 180 1.6 16.1 0.00 0.00 0.00 73 1013.1
20260510004349 28 175 3.2 9.7 0.00 0.00 0.00 80 1012.9
20260510003847 28 178 1.6 12.9 0.00 0.00 0.00 78 1012.9
20260510003344 28 185 1.6 6.4 0.00 0.00 0.00 77 1013.0
20260510002842 28 203 3.2 6.4 0.00 0.00 0.00 76 1013.1
20260510002340 28 156 6.4 8.0 0.00 0.00 0.00 75 1012.8
20260510001837 28 220 0.0 11.3 0.00 0.00 0.00 73 1012.9
20260510001335 28 151 6.4 12.9 0.00 0.00 0.00 72 1012.8
20260510000831 28 121 0.0 6.4 0.00 0.00 0.00 72 1013.2
20260510000328 28 133 3.2 9.7 0.00 0.00 0.00 70 1012.8
20260509235825 29 214 1.6 6.4 0.00 0.00 0.00 71 1012.6
20260509235321 29 229 0.0 11.3 0.00 0.00 0.00 72 1012.7
20260509234817 29 180 0.0 4.8 0.00 0.00 0.00 76 1012.6
20260509234314 29 131 0.0 8.0 0.00 0.00 0.00 76 1012.7
20260509233812 29 174 3.2 11.3 0.00 0.00 0.00 77 1012.6
20260509233309 29 198 3.2 8.0 0.00 0.00 0.00 77 1012.5
20260509232805 29 167 3.2 9.7 0.00 0.00 0.00 76 1012.4
20260509232306 30 136 8.0 9.7 0.00 0.00 0.00 76 1012.4
20260509231759 30 211 1.6 8.0 0.00 0.00 0.00 77 1012.7
20260509231256 30 175 3.2 8.0 0.00 0.00 0.00 76 1012.8
20260509230754 30 139 3.2 11.3 0.00 0.00 0.00 76 1012.4
20260509230250 30 135 1.6 8.0 0.00 0.00 0.00 77 1012.6
20260509225745 30 129 1.6 12.9 0.00 0.00 0.00 77 1012.5
20260509225242 31 168 3.2 14.5 0.00 0.00 0.00 75 1012.5
20260509224738 30 181 3.2 8.0 0.00 0.00 0.00 76 1012.6
20260509224235 30 187 6.4 9.7 0.00 0.00 0.00 77 1012.4
20260509223732 30 163 3.2 9.7 0.00 0.00 0.00 77 1012.2
20260509223229 30 166 0.0 11.3 0.00 0.00 0.00 76 1012.5
20260509222726 30 169 3.2 11.3 0.00 0.00 0.00 77 1012.4
20260509222221 31 207 1.6 16.1 0.00 0.00 0.00 74 1012.3
20260509221717 31 190 3.2 8.0 0.00 0.00 0.00 73 1012.2
20260509221213 31 151 4.8 14.5 0.00 0.00 0.00 74 1012.1
20260509220709 30 157 3.2 8.0 0.00 0.00 0.00 76 1012.2
20260509220206 30 193 1.6 9.7 0.00 0.00 0.00 75 1012.4
20260509215701 31 147 4.8 9.7 0.00 0.00 0.00 72 1012.2
20260509215158 31 195 3.2 6.4 0.00 0.00 0.00 70 1012.0
20260509214655 31 148 8.0 11.3 0.00 0.00 0.00 70 1012.1
20260509214152 32 137 4.8 9.7 0.00 0.00 0.00 67 1012.3
20260509213649 33 205 3.2 8.0 0.00 0.00 0.00 66 1012.0
20260509213144 33 234 4.8 6.4 0.00 0.00 0.00 66 1011.9
20260509212643 32 171 4.8 9.7 0.00 0.00 0.00 65 1012.0
20260509212139 32 201 4.8 9.7 0.00 0.00 0.00 67 1012.2
20260509211635 33 155 3.2 6.4 0.00 0.00 0.00 64 1011.9
20260509211132 33 252 1.6 4.8 0.00 0.00 0.00 63 1012.3
20260509210629 33 224 3.2 9.7 0.00 0.00 0.00 63 1012.2
20260509210126 33 263 1.6 8.0 0.00 0.00 0.00 63 1012.0
20260509205620 33 250 3.2 6.4 0.00 0.00 0.00 60 1012.3
20260509205115 34 247 6.4 6.4 0.00 0.00 0.00 57 1012.3
20260509204612 34 239 3.2 4.8 0.00 0.00 0.00 57 1012.1
20260509204108 33 212 0.0 8.0 0.00 0.00 0.00 62 1012.4
20260509203604 33 243 4.8 6.4 0.00 0.00 0.00 62 1012.5
20260509203103 34 246 0.0 3.2 0.00 0.00 0.00 61 1012.4
20260509202603 33 175 0.0 9.7 0.00 0.00 0.00 64 1012.4
20260509202058 33 268 3.2 6.4 0.00 0.00 0.00 64 1012.4
20260509201553 34 173 3.2 6.4 0.00 0.00 0.00 63 1012.5
20260509201052 33 219 0.0 4.8 0.00 0.00 0.00 55 1012.7
20260509200550 33 314 1.6 8.0 0.00 0.00 0.00 57 1012.9
20260509200048 33 227 3.2 4.8 0.00 0.00 0.00 55 1012.9
20260509195543 33 218 0.0 1.6 0.00 0.00 0.00 57 1012.8
20260509195037 32 290 0.0 3.2 0.00 0.00 0.00 59 1012.9
20260509194532 33 266 3.2 6.4 0.00 0.00 0.00 58 1013.1
20260509194031 32 291 4.8 9.7 0.00 0.00 0.00 59 1013.0
20260509193530 32 320 3.2 8.0 0.00 0.00 0.00 57 1012.9
20260509193027 33 313 3.2 8.0 0.00 0.00 0.00 60 1012.9
20260509192524 33 292 3.2 4.8 0.00 0.00 0.00 61 1013.1
20260509192019 33 298 0.0 3.2 0.00 0.00 0.00 61 1013.0
20260509191514 32 212 1.6 4.8 0.00 0.00 0.00 63 1013.0
20260509191010 32 224 3.2 8.0 0.00 0.00 0.00 63 1013.1
20260509190507 33 248 0.0 3.2 0.00 0.00 0.00 64 1013.0
20260509190006 33 221 0.0 4.8 0.00 0.00 0.00 63 1013.2
20260509185502 32 286 3.2 4.8 0.00 0.00 0.00 62 1013.2
20260509184958 32 287 0.0 6.4 0.00 0.00 0.00 68 1013.3
20260509184457 31 263 0.0 3.2 0.00 0.00 0.00 69 1013.2
20260509183953 31 329 3.2 6.4 0.00 0.00 0.00 72 1013.4
20260509183453 31 328 3.2 14.5 0.00 0.00 0.00 71 1013.3
20260509182949 31 292 8.0 11.3 0.00 0.00 0.00 69 1013.8
20260509182445 31 218 0.0 4.8 0.00 0.00 0.00 76 1013.7
20260509181943 31 309 0.0 6.4 0.00 0.00 0.00 76 1014.0
20260509181441 30 94 0.0 4.8 0.00 0.00 0.00 76 1013.8
20260509180938 30 6 1.6 6.4 0.00 0.00 0.00 77 1014.0
20260509180434 30 118 4.8 9.7 0.00 0.00 0.00 77 1013.9
20260509175931 30 185 3.2 8.0 0.00 0.00 0.00 77 1014.4
20260509175428 29 237 0.0 6.4 0.00 0.00 0.00 79 1014.5
20260509174924 29 318 0.0 8.0 0.00 0.00 0.00 78 1014.6
20260509174420 29 350 3.2 4.8 0.00 0.00 0.00 84 1014.5
20260509173916 28 325 1.6 9.7 0.00 0.00 0.00 83 1014.7
20260509173415 28 221 4.8 4.8 0.00 0.00 0.00 82 1014.8
20260509172912 28 228 0.0 9.7 0.00 0.00 0.00 84 1014.7
20260509172409 28 326 3.2 11.3 0.00 0.00 0.00 85 1014.8
20260509171905 28 38 0.0 6.4 0.00 0.00 0.00 84 1014.8
20260509171401 28 33 1.6 11.3 0.00 0.00 0.00 84 1014.9
20260509170857 28 135 0.0 8.0 0.00 0.00 0.00 84 1015.0
20260509170353 28 319 0.0 6.4 0.00 0.00 0.00 84 1015.0
20260509165849 28 266 1.6 8.0 0.00 0.00 0.00 85 1014.9
20260509165343 28 246 3.2 9.7 0.00 0.00 0.00 85 1015.1
20260509164839 28 289 3.2 6.4 0.00 0.00 0.00 83 1015.0
20260509164335 28 245 0.0 4.8 0.00 0.00 0.00 85 1015.2
20260509163832 28 267 0.0 6.4 0.00 0.00 0.00 84 1014.9
20260509163328 28 232 0.0 8.0 0.00 0.00 0.00 83 1015.0
20260509162827 30 224 0.0 4.8 0.00 0.00 0.00 82 1014.7
20260509162320 29 306 3.2 6.4 0.00 0.00 0.00 82 1014.8
20260509161817 28 333 1.6 6.4 0.00 0.00 0.00 84 1014.9
20260509161313 28 235 0.0 4.8 0.00 0.00 0.00 85 1014.8
20260509160808 28 178 0.0 4.8 0.00 0.00 0.00 84 1014.8
20260509160305 28 269 0.0 3.2 0.00 0.00 0.00 84 1014.7
20260509155800 28 231 1.6 3.2 0.00 0.00 0.00 85 1015.0
20260509155257 28 86 1.6 4.8 0.00 0.00 0.00 88 1014.8
20260509154753 27 0 0.0 4.8 0.00 0.00 0.00 88 1014.9
20260509154250 27 294 0.0 3.2 0.00 0.00 0.00 90 1015.0
20260509153747 26 202 0.0 3.2 0.00 0.00 0.00 91 1014.5
20260509153243 26 143 3.2 11.3 0.00 0.00 0.00 92 1014.3
20260509152740 26 169 3.2 8.0 0.00 0.00 0.00 93 1014.3
20260509152236 26 151 1.6 4.8 0.00 0.00 0.00 94 1014.5
20260509151733 26 265 1.6 4.8 0.00 0.00 0.00 93 1014.4
20260509151230 26 147 0.0 6.4 0.00 0.00 0.00 95 1014.8
20260509150728 25 192 0.0 4.8 0.00 0.00 0.00 95 1014.3
20260509150226 25 222 3.2 9.7 0.00 0.00 0.00 95 1014.0
20260509145723 25 169 1.6 6.4 0.00 0.00 0.00 95 1014.3
20260509145217 25 213 0.0 3.2 0.00 0.00 0.00 96 1014.6
20260509144714 25 107 3.2 8.0 0.00 0.00 0.00 95 1014.5
20260509144211 25 207 0.0 4.8 0.00 0.00 0.00 96 1015.0
20260509143708 25 230 0.0 3.2 0.00 0.00 0.00 95 1014.7
20260509143206 25 196 1.6 4.8 0.00 0.00 0.00 96 1014.9
20260509142701 25 230 0.0 3.2 0.00 0.00 0.00 96 1014.8
20260509142158 25 219 3.2 4.8 0.00 0.00 0.00 95 1014.8
20260509141653 26 200 1.6 3.2 0.00 0.00 0.00 96 1014.7
20260509141150 26 193 1.6 3.2 0.00 0.00 0.00 96 1014.7
20260509140647 26 342 1.6 4.8 0.00 0.00 0.00 97 1014.8
20260509140145 25 124 0.0 4.8 0.00 0.00 0.00 98 1014.6
20260509135642 25 242 0.0 1.6 0.00 0.00 0.00 99 1014.6
20260509135140 25 269 0.0 3.2 0.00 0.00 0.00 99 1014.8
20260509134636 25 10 0.0 3.2 0.00 0.00 0.00 99 1014.4
20260509134134 24 239 0.0 3.2 0.00 0.00 0.00 99 1014.3
20260509133631 24 241 1.6 3.2 0.00 0.00 0.00 99 1014.5
20260509133128 25 205 0.0 0.0 0.00 0.00 0.00 99 1014.6
20260509132626 24 37 0.0 3.2 0.00 0.00 0.00 99 1014.7
20260509132124 24 117 0.0 4.8 0.00 0.00 0.00 99 1015.0
20260509131620 23 208 0.0 4.8 0.00 0.00 0.00 99 1015.0
20260509131117 23 154 0.0 3.2 0.00 0.00 0.00 99 1014.8
20260509130613 23 285 0.0 6.4 0.00 0.00 0.00 99 1014.6
20260509130110 24 81 0.0 3.2 0.00 0.00 0.00 99 1014.5
20260509125606 23 195 0.0 3.2 0.00 0.00 0.00 99 1014.6
20260509125103 23 193 0.0 3.2 0.00 0.00 0.00 99 1014.5
20260509124559 23 177 1.6 3.2 0.00 0.00 0.00 99 1014.6
20260509124057 23 245 0.0 3.2 0.00 0.00 0.00 99 1014.6
20260509123554 23 224 0.0 3.2 0.00 0.00 0.00 99 1014.7
20260509123050 23 183 0.0 1.6 0.00 0.00 0.00 99 1014.9
20260509122547 23 255 0.0 0.0 0.00 0.00 0.00 99 1014.9
20260509122045 23 219 0.0 1.6 0.00 0.00 0.00 99 1014.7
20260509121541 23 207 1.6 3.2 0.00 0.00 0.00 99 1014.6
20260509121038 23 168 1.6 3.2 0.00 0.00 0.00 99 1014.4
20260509120537 23 175 0.0 1.6 0.00 0.00 0.00 99 1014.5
20260509120034 23 195 0.0 1.6 0.00 0.00 0.00 99 1014.6
20260509115531 23 215 0.0 1.6 0.00 0.00 0.00 99 1014.6
20260509115029 23 142 0.0 1.6 0.00 0.00 0.00 99 1014.5
20260509114527 23 37 0.0 0.0 0.00 0.00 0.00 99 1014.8
20260509114026 23 37 0.0 1.6 0.00 0.00 0.00 99 1014.5
20260509113523 23 195 0.0 3.2 0.00 0.00 0.00 99 1014.3
20260509113021 23 66 0.0 1.6 0.00 0.00 0.00 99 1014.5
20260509112517 23 154 0.0 1.6 0.00 0.00 0.00 99 1014.5
20260509112014 23 89 0.0 1.6 0.00 0.00 0.00 99 1014.7
20260509111511 23 202 0.0 1.6 0.00 0.00 0.00 99 1014.6
20260509111009 23 181 0.0 3.2 0.00 0.00 0.00 99 1014.3
20260509110505 23 208 0.0 1.6 0.00 0.00 0.00 99 1014.3
20260509110002 23 180 0.0 3.2 0.00 0.00 0.00 99 1014.1
20260509105501 23 186 0.0 1.6 0.00 0.00 0.00 99 1014.1
20260509104957 23 123 0.0 1.6 0.00 0.00 0.00 99 1013.8
20260509104454 23 209 0.0 3.2 0.00 0.00 0.00 99 1014.2
20260509103951 23 315 0.0 1.6 0.00 0.00 0.00 99 1013.8
20260509103449 23 321 0.0 1.6 0.00 0.00 0.00 99 1014.0
20260509102947 23 135 0.0 0.0 0.00 0.00 0.00 99 1014.1
20260509102444 23 117 0.0 0.0 0.00 0.00 0.00 99 1014.2
20260509101940 23 117 0.0 0.0 0.00 0.00 0.00 99 1013.9
20260509101437 23 230 0.0 0.0 0.00 0.00 0.00 99 1014.0
20260509100934 23 154 0.0 1.6 0.00 0.00 0.00 99 1014.2
20260509100431 23 329 0.0 1.6 0.00 0.00 0.00 99 1014.1
20260509095927 23 154 0.0 0.0 0.00 0.00 0.00 99 1013.9
20260509095425 23 154 0.0 0.0 0.00 0.00 0.00 99 1014.1
20260509094922 23 154 0.0 1.6 0.00 0.00 0.00 99 1014.0
20260509094418 23 195 0.0 0.0 0.00 0.00 0.00 99 1013.9
20260509093916 23 230 0.0 0.0 0.00 0.00 0.00 99 1013.8
20260509093413 23 230 0.0 0.0 0.00 0.00 0.00 99 1013.8
20260509092911 23 154 0.0 0.0 0.00 0.00 0.00 99 1013.6
20260509092409 23 154 0.0 0.0 0.00 0.00 0.00 99 1013.7
20260509091908 22 154 0.0 0.0 0.00 0.00 0.00 99 1013.3
20260509091404 22 154 0.0 1.6 0.00 0.00 0.00 99 1013.5
20260509090901 22 224 0.0 1.6 0.00 0.00 0.00 99 1013.5
20260509090358 22 173 0.0 1.6 0.00 0.00 0.00 99 1013.6
20260509085856 22 110 0.0 0.0 0.00 0.00 0.00 99 1013.6
20260509085353 22 235 0.0 0.0 0.00 0.00 0.00 99 1013.5
20260509084849 22 235 0.0 1.6 0.00 0.00 0.00 99 1013.5
20260509084346 22 202 0.0 0.0 0.00 0.00 0.00 99 1013.5
20260509083844 22 142 0.0 1.6 0.00 0.00 0.00 99 1013.6
20260509083340 22 154 0.0 0.0 0.00 0.00 0.00 99 1013.8
20260509082837 22 154 0.0 0.0 0.00 0.00 0.00 99 1013.7
20260509082334 22 154 0.0 0.0 0.00 0.00 0.00 99 1013.5
20260509081831 22 164 0.0 0.0 0.00 0.00 0.00 99 1013.8
20260509081328 22 147 0.0 1.6 0.00 0.00 0.00 99 1013.7
20260509080826 22 117 0.0 0.0 0.00 0.00 0.00 99 1013.7
20260509080324 22 117 0.0 0.0 0.00 0.00 0.00 99 1013.7
20260509075822 22 130 0.0 1.6 0.00 0.00 0.00 99 1013.7
20260509075319 22 193 0.0 1.6 0.00 0.00 0.00 99 1014.1
20260509074816 22 166 0.0 0.0 0.00 0.00 0.00 99 1014.3
20260509074313 22 117 0.0 0.0 0.00 0.00 0.00 99 1014.2
20260509073809 22 117 0.0 0.0 0.00 0.00 0.00 99 1014.2
20260509073306 22 117 0.0 0.0 0.00 0.00 0.00 99 1014.1
20260509072802 22 117 0.0 1.6 0.00 0.00 0.00 99 1014.3
20260509072259 22 142 0.0 1.6 0.00 0.00 0.00 99 1014.2